Home   Weather   Zwolle   Past weeks

Flag for Netherlands Past Weather in Zwolle, Netherlands — Yesterday and Last 2 Weeks

Now
37 °F

Clear.


Feels Like: 31 °F
Forecast: 36 / 47 °F
Wind: 8 mph from Southeast

Location: Amsterdam Schiphol Airport

Current Time: Dec 6, 2016 at 5:22:50 pm

Latest Report: Dec 6, 2016 at 4:55 pm


Visibility: 5 mi

Pressure: 30.39 "Hg

Humidity: 87%

Dew Point: 34 °F

Location of ZwolleLocation

Past Weather in Zwolle — Graph

°F

Zwolle Temperature Yesterday

Maximum temperature yesterday: 39 °F (at 2:25 pm)
Minimum temperature yesterday: 25 °F (at 6:55 am)
Average temperature yesterday: 30 °F

High & Low Weather Summary for the Past Weeks

 TemperatureHumidityPressure
High55 °F (Nov 21, 3:25 pm)100% (Nov 23, 12:55 am)30.60 "Hg (Nov 23, 12:55 am)
Low23 °F (Nov 29, 8:55 am)53% (Nov 28, 12:55 pm)29.39 "Hg (Nov 21, 3:25 pm)
Average40 °F84%30.23 "Hg
* Reported Nov 21 3:25 pm — Dec 6 3:55 pm, Zwolle, Weather by CustomWeather, © 2016

Note: Actual official high and low records may vary slightly from our data, if they occured in-between our weather recording intervals... More about our weather records

Advertising

Zwolle Weather History for the Previous 24 Hours

Scroll right to see more
 ConditionsComfort  
Time TempWeatherWind HumidityBarometerVisibility
3:55 pm
Tue, Dec 6
39 °FClear.7 mph81%30.39 "Hg5 mi
3:25 pm39 °FClear.6 mph87%30.39 "Hg5 mi
2:55 pm41 °FClear.5 mph81%30.42 "Hg6 mi
2:25 pm41 °FSunny.5 mph81%30.42 "Hg10 mi
1:55 pm41 °FClear.6 mph81%30.42 "Hg6 mi
1:25 pm41 °FSunny.6 mph76%30.42 "Hg10 mi
12:55 pm39 °FClear.7 mph81%30.42 "Hg6 mi
12:25 pm39 °FClear.8 mph81%30.42 "Hg5 mi
11:55 am37 °FClear.5 mph87%30.42 "Hg5 mi
11:25 am37 °FClear.3 mph81%30.42 "Hg5 mi
10:55 am34 °FClear.3 mph93%30.42 "Hg4 mi
10:25 am32 °FClear.5 mph93%30.42 "Hg4 mi
9:55 am30 °FIce fog.5 mph93%30.39 "Hg3 mi
9:25 am28 °FIce fog.3 mph100%30.39 "Hg3 mi
8:55 am28 °FIce fog.3 mph93%30.39 "Hg3 mi
8:25 am27 °FIce fog.2 mph93%30.39 "Hg3 mi
7:55 am28 °FClear.2 mph93%30.39 "Hg4 mi
7:25 am28 °FClear.5 mph100%30.36 "Hg4 mi
6:55 am28 °FClear.2 mph93%30.36 "Hg4 mi
6:25 am27 °FClear.2 mph93%30.36 "Hg5 mi
5:55 am28 °FClear.3 mph100%30.36 "Hg5 mi
5:25 am27 °FClear.3 mph93%30.36 "Hg4 mi
4:55 am27 °FClear.1 mph100%30.36 "Hg4 mi
4:25 am27 °FClear.3 mph93%30.36 "Hg5 mi
3:55 am27 °FClear.1 mph100%30.36 "Hg5 mi
3:25 am27 °FClear.2 mph93%30.36 "Hg5 mi
2:55 am28 °FClear.3 mph93%30.36 "Hg6 mi
2:25 am27 °FClear.1 mph100%30.36 "Hg6 mi
1:55 am28 °FClear.1 mph93%30.36 "Hg6 mi
1:25 am28 °FClear.3 mph93%30.36 "Hg6 mi
12:55 am28 °FClear.2 mph93%30.33 "Hg6 mi
12:25 am27 °FClear.2 mph100%30.33 "Hg10 mi
11:55 pm
Mon, Dec 5
30 °FClear.3 mph93%30.33 "Hg10 mi
11:25 pm28 °FClear.3 mph93%30.33 "Hg10 mi
10:55 pm27 °FClear.3 mph93%30.33 "Hg10 mi
10:25 pm30 °FClear.1 mph93%30.33 "Hg10 mi
9:55 pm28 °FClear.2 mph93%30.33 "Hg10 mi
9:25 pm30 °FClear.1 mph93%30.33 "Hg10 mi
8:55 pm28 °FClear.No wind100%30.33 "Hg10 mi
8:25 pm28 °FClear.2 mph93%30.33 "Hg10 mi
7:55 pm28 °FClear.2 mph100%30.33 "Hg10 mi
7:25 pm28 °FClear.3 mph93%30.33 "Hg10 mi
6:55 pm30 °FClear.5 mph86%30.33 "Hg10 mi
6:25 pm30 °FClear.1 mph93%30.30 "Hg10 mi
5:55 pm32 °FClear.2 mph87%30.30 "Hg10 mi
5:25 pm32 °FClear.1 mph87%30.30 "Hg10 mi
Weather by CustomWeather, © 2016

See weather overviewHow to use our weather pages